Vertical_Velocity
-2 -0 2 16 -4 -3 -0 -1 -4 -2 8 -1 -4 -2 18 -5 -0 1 3 -0 -1 -1 0 -1 -1 -0 -1 -1 -1 -1 -3 -4 -3 -4 -3 -1 -0 -0 1 -2 -2 -3 -4 -4
3 -5 -6 -6 2 1 -1 -1 -5 -4 -6 6 -3 -4 4 -5 4 -2 -3 -2 -1 0 -1 0 -0 -1 -1 -0 -1 -3 -4 -5 -4 -1 -2 -3 -3 -1 -2 -2 0 -2 -4 -3
-1 8 -2 -2 -0 -2 3 1 -1 2 -5 -6 -2 -13 -17 -2 1 0 0 -1 -1 -2 -1 0 -0 0 1 0 -3 -3 -3 -1 -3 -5 -3 -4 -6 -6 -6 -1 -3 -2 -4 -3
-0 -1 2 1 -4 3 1 8 -1 0 5 -0 11 -26 -3 8 -1 -3 -1 1 -0 2 3 3 2 1 -1 -1 1 -0 -1 -1 -4 -5 -4 -4 -6 -7 -1 -6 -4 2 -4 -2
6 1 2 -2 0 -1 3 -6 -1 -4 -2 4 -4 9 -1 1 -2 -9 -3 -1 2 5 3 0 1 1 -1 -1 1 1 -1 -3 -4 -3 -4 -2 -6 -7 -2 -5 -1 -3 -1 -1
-1 2 -5 1 -2 -7 0 -2 0 0 1 10 -7 15 -19 27 3 2 -5 -0 -1 1 2 1 0 1 -1 -1 0 -1 -2 -2 -4 -4 -3 -2 -8 -3 -2 -4 -1 -1 1 -2
-2 -2 0 -1 0 3 3 4 -2 2 12 -11 9 0 -26 15 -11 -4 -2 -1 -0 1 0 2 1 1 -1 -1 -1 -1 -1 -2 -2 -2 -1 -4 -6 -1 -3 -2 0 1 0 -1
3 6 -2 -3 -3 3 -3 6 0 0 3 -1 -2 -5 13 -1 1 -0 1 0 0 0 -2 -1 0 -0 -2 -1 -1 -0 1 -1 -2 -1 -3 -3 -1 0 -2 -3 0 -0 -2 -2
3 0 -5 -5 1 -2 10 -1 6 4 -8 11 -10 -16 -8 -6 -1 -1 3 2 0 1 -0 0 1 1 1 -0 -0 1 1 -1 -3 -1 -4 -2 -1 -3 -2 -2 0 -5 -6 -3
2 -5 -4 -1 -0 -9 2 12 7 4 3 0 -7 -2 -4 -2 -5 1 4 2 -0 2 1 -1 -0 1 -0 -1 -0 1 -1 0 -3 1 -4 -2 -6 -3 -3 -0 -2 -6 1 -1
-1 5 7 -4 0 9 2 2 -4 5 1 3 0 -13 -1 -2 2 2 3 -1 -1 -0 -2 -1 2 0 -1 -1 1 -1 -2 -2 -2 -2 1 -5 -4 -1 -4 -3 -3 -4 -3 -4
5 2 -4 -9 -2 -0 -3 -4 0 13 -9 -1 5 -19 -3 0 -2 -21 -10 -1 3 -1 0 3 1 0 0 1 1 1 -3 1 -3 -0 -2 -0 -3 1 -4 -1 -4 0 -1 3
8 1 -3 -2 5 -0 0 6 2 4 5 -8 13 -16 3 1 -1 -3 0 -3 -5 2 -0 0 0 1 1 2 1 1 0 -2 -0 -3 -4 3 2 3 -5 -1 -2 -1 2 1
-0 -5 1 -4 -1 14 9 8 4 10 8 -8 -7 -20 3 -4 -1 -1 -2 1 -2 -1 1 0 2 2 2 1 2 -0 -0 -2 0 -1 -3 3 -1 5 -3 -4 -2 -2 -1 0
3 -1 4 -3 3 0 -1 -4 -5 2 -2 15 -20 -5 2 4 4 -1 -2 0 -2 1 1 1 3 2 2 1 0 -0 -0 -1 -3 -0 -0 -0 2 -2 2 -0 -0 -4 2 1
15 -2 4 -8 -5 -1 -4 -4 -4 -3 -6 -7 5 -24 12 2 -1 -1 1 0 1 2 3 1 2 2 1 1 1 0 0 -1 -2 0 1 -1 -1 -1 0 0 2 -1 1 -2
-0 -1 -1 -16 1 3 0 -17 -3 -2 3 -1 -2 0 3 -1 2 -0 -1 -1 -0 1 0 1 2 1 1 1 1 0 1 -1 0 2 0 -2 -0 0 0 2 -1 1 0 -0
-8 3 6 -11 4 6 -5 -4 -1 -1 2 -0 -6 6 2 -0 1 -1 -2 -1 -0 -0 1 2 1 -0 -0 1 1 1 -0 1 2 2 -0 -2 -1 2 2 1 3 2 -2 2
-6 5 4 2 2 -13 -9 -0 2 5 -7 -3 -0 3 -4 2 -0 -3 -2 1 0 -0 1 1 -0 -1 0 1 1 1 -0 1 2 1 -1 -1 -0 -1 2 2 1 2 1 -0
2 8 5 13 6 1 3 -5 0 -3 -6 -1 -0 -1 -1 -2 -1 -2 -1 0 1 1 0 -0 0 1 -0 -0 1 0 1 1 0 0 1 -0 1 1 1 0 2 2 2 1
7 9 -7 -3 2 -10 -8 -1 -4 4 1 -1 -0 -3 -2 -1 -0 -0 -1 -1 -1 -2 -1 -0 1 -0 -0 0 0 0 1 1 0 1 1 -0 0 0 1 -0 -1 -1 -3 -2
-7 -6 -1 4 11 -7 -2 0 4 2 2 -1 0 -3 -3 -2 -1 -1 -1 -0 -0 0 0 0 -1 -1 -1 0 1 1 0 1 0 1 1 0 -0 1 0 -0 0 2 1 1
2 -18 7 -1 9 -2 0 0 -1 0 2 1 1 -2 -2 -1 -1 -0 -0 -0 -0 0 -1 -1 1 1 -1 -1 0 1 1 1 0 2 1 0 -1 0 0 0 -1 -1 0 0
2 -2 -6 4 -8 -1 -0 1 0 1 1 1 -0 -2 -1 -1 -1 -0 -0 0 0 -1 -0 1 1 1 0 -0 -0 0 0 1 1 1 1 1 1 -0 1 -1 -1 -1 -0 0
11 -1 -2 -10 -1 0 -1 0 1 0 1 1 -0 -0 0 -1 -1 -0 -1 -0 0 0 1 0 -0 1 0 1 0 2 -4 -0 0 0 1 1 1 1 1 -0 0 -0 -1 -2
-4 -4 -4 1 4 -3 -2 -2 -1 -0 1 0 -0 -1 0 -1 -0 -0 -1 1 1 -0 -0 1 1 2 1 3 1 -2 -2 1 1 1 1 1 1 0 0 1 1 0 0 -0
Height
3121 3124 3125 3126 3123 3122 3121 3121 3122 3123 3121 3115 3116 3114 3113 3106 3107 3108 3109 3109 3109 3108 3107 3107 3106 3105 3104 3102 3099 3097 3093 3091 3089 3086 3083 3080 3076 3072 3067 3063 3058 3054 3050 3048
3119 3118 3118 3117 3117 3117 3117 3117 3116 3116 3115 3112 3111 3106 3109 3099 3102 3103 3104 3104 3103 3102 3101 3100 3099 3099 3097 3095 3092 3089 3086 3084 3081 3078 3074 3068 3063 3058 3053 3049 3045 3041 3037 3033
3113 3116 3111 3112 3113 3113 3114 3113 3112 3112 3110 3108 3106 3095 3101 3094 3095 3096 3097 3097 3096 3095 3094 3093 3092 3091 3090 3089 3086 3084 3081 3078 3074 3069 3064 3058 3053 3047 3042 3036 3031 3027 3023 3019
3108 3107 3105 3106 3108 3109 3108 3110 3107 3106 3106 3102 3103 3086 3095 3091 3089 3089 3090 3091 3090 3089 3088 3086 3085 3085 3084 3083 3081 3078 3075 3071 3066 3061 3055 3049 3043 3037 3030 3025 3020 3016 3011 3006
3107 3104 3104 3104 3105 3104 3106 3103 3103 3102 3101 3097 3097 3097 3084 3086 3083 3085 3086 3085 3084 3083 3082 3082 3081 3080 3079 3078 3076 3072 3068 3064 3059 3054 3047 3040 3035 3027 3019 3014 3009 3003 2998 2995
3099 3099 3099 3099 3099 3100 3102 3101 3100 3098 3097 3090 3088 3089 3074 3080 3080 3080 3079 3079 3078 3077 3077 3077 3076 3075 3074 3073 3071 3067 3063 3058 3052 3046 3040 3034 3027 3020 3013 3006 2999 2993 2988 2984
3096 3095 3095 3094 3095 3097 3098 3099 3095 3090 3086 3082 3080 3081 3077 3075 3077 3076 3076 3074 3073 3072 3073 3073 3072 3071 3070 3069 3067 3064 3059 3053 3048 3042 3036 3030 3023 3014 3005 2998 2991 2986 2982 2978
3092 3091 3092 3092 3092 3095 3094 3094 3092 3083 3075 3076 3078 3074 3071 3071 3070 3070 3069 3069 3068 3068 3068 3069 3069 3068 3066 3066 3064 3060 3056 3051 3046 3041 3034 3028 3020 3012 3003 2995 2987 2981 2976 2972
3090 3089 3088 3089 3089 3092 3090 3090 3090 3086 3084 3081 3074 3071 3070 3067 3066 3066 3065 3065 3065 3065 3065 3066 3065 3064 3062 3061 3059 3057 3054 3049 3044 3039 3033 3027 3019 3011 3001 2993 2985 2976 2969 2964
3088 3086 3085 3086 3086 3086 3086 3087 3086 3084 3078 3068 3064 3062 3064 3063 3063 3062 3061 3061 3062 3062 3063 3063 3061 3059 3058 3057 3056 3054 3050 3046 3041 3038 3033 3026 3018 3011 3002 2994 2987 2977 2970 2962
3084 3084 3084 3083 3082 3081 3081 3080 3081 3080 3076 3069 3063 3058 3060 3061 3060 3058 3059 3059 3059 3059 3059 3059 3057 3055 3054 3053 3052 3050 3047 3043 3039 3035 3031 3025 3019 3013 3005 2997 2989 2980 2972 2962
3082 3079 3076 3076 3077 3078 3076 3075 3074 3073 3070 3068 3067 3058 3058 3057 3057 3058 3057 3056 3055 3055 3054 3053 3053 3051 3051 3050 3048 3046 3044 3040 3038 3034 3029 3025 3019 3014 3009 3001 2994 2986 2978 2970
3076 3074 3072 3068 3072 3072 3069 3070 3069 3069 3068 3064 3066 3055 3055 3055 3054 3053 3052 3051 3051 3051 3049 3048 3048 3047 3047 3046 3044 3043 3041 3038 3035 3033 3028 3024 3020 3016 3011 3004 2998 2991 2984 2978
3070 3070 3070 3066 3066 3068 3066 3066 3065 3065 3062 3058 3054 3051 3052 3051 3048 3047 3045 3043 3044 3044 3044 3043 3043 3043 3043 3042 3041 3040 3038 3035 3034 3031 3027 3025 3022 3015 3012 3006 3001 2996 2989 2983
3067 3064 3065 3062 3063 3062 3060 3060 3060 3059 3056 3054 3044 3046 3044 3044 3043 3040 3039 3038 3038 3038 3038 3037 3037 3038 3038 3038 3037 3037 3035 3033 3031 3029 3027 3023 3020 3016 3012 3008 3003 2999 2994 2987
3061 3059 3057 3054 3056 3055 3052 3051 3051 3049 3045 3043 3041 3036 3037 3035 3034 3034 3034 3033 3033 3033 3032 3032 3033 3033 3034 3035 3034 3033 3032 3031 3029 3027 3026 3023 3019 3016 3012 3009 3005 3001 2997 2991
3055 3056 3056 3050 3051 3049 3045 3041 3041 3039 3038 3036 3034 3033 3032 3029 3029 3029 3028 3028 3028 3027 3027 3028 3029 3030 3031 3031 3031 3031 3030 3029 3027 3025 3024 3022 3018 3015 3012 3008 3006 3002 2999 2994
3048 3051 3053 3048 3048 3042 3035 3035 3035 3033 3032 3031 3028 3027 3024 3024 3023 3023 3023 3023 3023 3023 3023 3024 3026 3027 3028 3028 3029 3029 3029 3028 3027 3025 3023 3021 3019 3015 3012 3009 3006 3003 3000 2996
3040 3044 3047 3044 3038 3034 3032 3031 3030 3028 3027 3025 3024 3022 3020 3020 3019 3019 3019 3019 3019 3019 3020 3021 3023 3024 3025 3026 3027 3027 3027 3026 3026 3025 3023 3020 3017 3015 3012 3010 3007 3002 3000 2997
3035 3037 3041 3038 3034 3028 3027 3026 3026 3025 3023 3021 3021 3020 3019 3018 3018 3017 3016 3016 3016 3017 3018 3019 3020 3022 3023 3024 3025 3025 3025 3025 3024 3023 3023 3021 3018 3015 3013 3010 3007 3003 3000 2997
3029 3033 3032 3033 3031 3025 3024 3023 3024 3025 3024 3019 3019 3018 3017 3017 3017 3016 3015 3014 3014 3015 3016 3017 3018 3019 3021 3022 3022 3023 3023 3023 3023 3022 3021 3020 3018 3015 3013 3010 3007 3004 3001 2998
3023 3026 3026 3026 3025 3022 3017 3019 3020 3019 3017 3017 3016 3016 3016 3015 3014 3013 3012 3012 3012 3013 3014 3015 3015 3017 3018 3019 3020 3020 3021 3021 3021 3021 3020 3019 3017 3015 3013 3010 3008 3004 3001 2998
3020 3019 3019 3020 3017 3015 3015 3015 3014 3014 3015 3014 3014 3013 3013 3012 3011 3011 3010 3010 3011 3011 3012 3012 3012 3013 3015 3016 3017 3018 3019 3020 3020 3020 3019 3017 3016 3014 3012 3010 3007 3004 3001 2998
3012 3013 3013 3014 3012 3012 3012 3012 3012 3012 3012 3012 3011 3010 3009 3009 3008 3008 3008 3008 3008 3009 3009 3009 3010 3011 3012 3013 3015 3016 3017 3018 3018 3018 3017 3016 3015 3013 3011 3009 3006 3004 3001 2998
3010 3008 3008 3008 3008 3009 3008 3008 3008 3009 3008 3008 3007 3006 3006 3006 3005 3005 3005 3006 3006 3006 3006 3006 3007 3008 3010 3011 3012 3013 3015 3016 3016 3015 3015 3014 3013 3011 3009 3007 3005 3002 2999 2996
3003 3004 3004 3004 3005 3004 3004 3005 3005 3005 3004 3003 3003 3002 3002 3002 3002 3002 3003 3002 3003 3003 3003 3004 3004 3006 3008 3009 3010 3011 3012 3013 3013 3013 3012 3011 3010 3009 3007 3004 3002 2999 2996 2993